This is the latest recevied weather packets stored in our database for station/object N9BSW. If no packets are shown the sender has not sent any weather packets the latest 10 day(s).
| Time | Temp. | Humidity | Pressure | Rain* | Wind** | Luminosity | Snow |
|---|---|---|---|---|---|---|---|
| 1777929495 | 23.89° C | 49% | 1005.1 hPa | 0 mm | - | 303 W/m² | - |
| 1777929191 | 23.89° C | 51% | 1005.1 hPa | 0 mm | - | 234 W/m² | - |
| 1777928889 | 23.89° C | 49% | 1005.4 hPa | 0 mm | - | 199 W/m² | - |
| 1777928586 | 25° C | 48% | 1005.3 hPa | 0 mm | - | 416 W/m² | - |
| 1777928283 | 25° C | 48% | 1005.3 hPa | 0 mm | - | 381 W/m² | - |
| 1777927980 | 24.44° C | 48% | 1005.5 hPa | 0 mm | - | 597 W/m² | - |
| 1777927678 | 24.44° C | 48% | 1005.6 hPa | 0 mm | - | 675 W/m² | - |
| 1777927376 | 23.89° C | 52% | 1005.4 hPa | 0 mm | - | 694 W/m² | - |
| 1777927075 | 24.44° C | 51% | 1005.3 hPa | 0 mm | - | 307 W/m² | - |
| 1777926773 | 23.89° C | 52% | 1005.4 hPa | 0 mm | - | 730 W/m² | - |
| 1777926473 | 22.78° C | 54% | 1005.6 hPa | 0 mm | - | 567 W/m² | - |
| 1777926170 | 22.78° C | 55% | 1005.7 hPa | 0 mm | - | 488 W/m² | - |
| 1777925867 | 22.22° C | 58% | 1005.8 hPa | 0 mm | - | 513 W/m² | - |
| 1777925564 | 21.67° C | 56% | 1005.8 hPa | 0 mm | - | 512 W/m² | - |
| 1777925262 | 21.11° C | 60% | 1006.1 hPa | 0 mm | - | 406 W/m² | - |
| 1777924958 | 20.56° C | 61% | 1006.5 hPa | 0 mm | - | 348 W/m² | - |
| 1777924654 | 20.56° C | 64% | 1006.4 hPa | 0 mm | - | 236 W/m² | - |
| 1777924350 | 20° C | 65% | 1006.9 hPa | 0 mm | - | 224 W/m² | - |
| 1777924048 | 19.44° C | 67% | 1007.1 hPa | 0 mm | - | 220 W/m² | - |
| 1777923743 | 19.44° C | 69% | 1007.1 hPa | 0 mm | - | 152 W/m² | - |
| 1777923440 | 19.44° C | 72% | 1007 hPa | 0 mm | - | 164 W/m² | - |
| 1777923138 | 19.44° C | 72% | 1006.8 hPa | 0 mm | - | 261 W/m² | - |
| 1777922836 | 18.89° C | 73% | 1006.7 hPa | 0 mm | - | 291 W/m² | - |
| 1777922534 | 18.33° C | 74% | 1006.7 hPa | 0 mm | - | 252 W/m² | - |
| 1777922232 | 18.33° C | 76% | 1006.6 hPa | 0 mm | - | 278 W/m² | - |
* Rain latest hour (hover to see other rain measurements)
** Current wind speed in m/s (hover to see current wind gust speed)